Birmingham, AL

7:43 PM CDT on August 17, 2017 (GMT -0500)
Birmingham International

Weather History for KBHM - March, 2012

Change the Weather History Date:

Tuesday, March 27, 2012

  Actual Average Record
Temperature  
Mean Temperature 70 °F 58 °F  
Max Temperature 85 °F 70 °F 89 °F (1919)
Min Temperature 54 °F 46 °F 18 °F (1955)
Degree Days  
Heating Degree Days 0 8  
Month to date heating degree days 91 292  
Since 1 July heating degree days 1854 2482  
Cooling Degree Days 5 1  
Month to date cooling degree days 97 17  
Year to date cooling degree days 106 21  
Growing Degree Days 18 (Base 50)    
Moisture  
Dew Point 49 °F    
Average Humidity 57    
Maximum Humidity 86    
Minimum Humidity 28    
Precipitation  
Precipitation 0.00 in 0.16 in 2.99 in (1902)
Month to date precipitation 4.60 4.59  
Year to date precipitation 13.46 13.96  
Snow  
Snow 0.00 in 0.00 in - ()
Month to date snowfall 0.0 0.6  
Since 1 July snowfall T 1.4  
Snow Depth 0.00 in    
Sea Level Pressure  
Sea Level Pressure 30.13 in    
Wind  
Wind Speed 4 mph (ESE)    
Max Wind Speed 13 mph    
Max Gust Speed 16 mph    
Visibility 10 miles    
Events      
T = Trace of Precipitation, MM = Missing Value Source: NWS Daily Summary

Daily Weather History Graph

Daily Weather History Graph

Search for Another Location

Airport or City:

Trip Planner

Search our weather history database for the weather conditions in past years. The results will help you decide how hot, cold, wet, or windy it might be!

Date:

Astronomy

Mar. 27, 2012 Rise Set
Actual Time 6:40 AM CDT 7:04 PM CDT
Civil Twilight 6:15 AM CDT 7:29 PM CDT
Nautical Twilight 5:46 AM CDT 7:58 PM CDT
Astronomical Twilight 5:16 AM CDT 8:28 PM CDT
Moon 9:25 AM CDT (3/27) 11:52 PM CDT (3/27)
Length of Visible Light 13h 13m
Length of Day
12h 23m
Waxing Crescent, 22% of the Moon is Illuminated
Mar 27
Waxing Crescent
Mar 30
First Quarter
Apr 6
Full
Apr 13
Last Quarter
Apr 21
New

Hourly Weather History & Observations

Time (CDT) Temp. Dew Point Humidity Pressure Visibility Wind Dir Wind Speed Gust Speed Precip Events Conditions
12:53 AM 57.0 °F 53.1 °F 87% 30.08 in 10.0 mi Calm Calm - N/A   Clear
1:53 AM 55.9 °F 52.0 °F 87% 30.08 in 10.0 mi Calm Calm - N/A   Clear
2:53 AM 55.0 °F 51.1 °F 86% 30.08 in 10.0 mi Calm Calm - N/A   Clear
3:53 AM 55.9 °F 51.1 °F 84% 30.09 in 10.0 mi Calm Calm - N/A   Clear
4:53 AM 62.1 °F 48.0 °F 60% 30.09 in 10.0 mi ENE 10.4 mph - N/A   Clear
5:53 AM 61.0 °F 46.9 °F 60% 30.11 in 10.0 mi ENE 6.9 mph - N/A   Clear
6:53 AM 60.1 °F 46.9 °F 62% 30.14 in 10.0 mi ENE 10.4 mph - N/A   Clear
7:53 AM 62.1 °F 48.0 °F 60% 30.15 in 10.0 mi ENE 6.9 mph - N/A   Clear
8:53 AM 64.9 °F 48.9 °F 56% 30.17 in 10.0 mi East 5.8 mph - N/A   Clear
9:53 AM 70.0 °F 48.9 °F 47% 30.18 in 10.0 mi ESE 4.6 mph - N/A   Clear
10:53 AM 73.9 °F 48.9 °F 41% 30.19 in 10.0 mi Variable 4.6 mph - N/A   Clear
11:53 AM 78.1 °F 48.0 °F 35% 30.17 in 10.0 mi Variable 5.8 mph - N/A   Clear
12:53 PM 81.0 °F 48.9 °F 33% 30.16 in 10.0 mi Variable 3.5 mph - N/A   Clear
1:53 PM 82.0 °F 46.9 °F 29% 30.14 in 10.0 mi Variable 3.5 mph - N/A   Clear
2:53 PM 82.9 °F 48.0 °F 29% 30.12 in 10.0 mi SSE 5.8 mph - N/A   Clear
3:53 PM 82.9 °F 48.9 °F 31% 30.11 in 10.0 mi Variable 6.9 mph - N/A   Clear
4:53 PM 82.9 °F 46.9 °F 28% 30.10 in 10.0 mi SSW 8.1 mph - N/A   Clear
5:53 PM 82.9 °F 46.9 °F 28% 30.09 in 10.0 mi South 3.5 mph - N/A   Clear
6:53 PM 80.1 °F 48.0 °F 32% 30.11 in 10.0 mi South 5.8 mph - N/A   Clear
7:53 PM 77.0 °F 48.9 °F 37% 30.11 in 10.0 mi SSE 4.6 mph - N/A   Clear
8:53 PM 73.9 °F 50.0 °F 43% 30.13 in 10.0 mi SSE 3.5 mph - N/A   Clear
9:53 PM 66.0 °F 53.1 °F 63% 30.14 in 10.0 mi Calm Calm - N/A   Clear
10:53 PM 66.9 °F 53.1 °F 61% 30.14 in 10.0 mi Calm Calm - N/A   Clear
11:53 PM 64.0 °F 54.0 °F 70% 30.13 in 9.0 mi Calm Calm - N/A   Clear